This is the latest recevied weather packets stored in our database for station/object N2WH. If no packets are shown the sender has not sent any weather packets the latest 10 day(s).
| Time | Temp. | Humidity | Pressure | Rain* | Wind** | Luminosity | Snow |
|---|---|---|---|---|---|---|---|
| 1777642140 | 10.56° C | 59% | 1014.2 hPa | 0 mm | - | 139 W/m² | - |
| 1777641836 | 10.56° C | 61% | 1014.3 hPa | 0 mm | - | 68 W/m² | - |
| 1777641532 | 10.56° C | 62% | 1014.2 hPa | 0 mm | - | 203 W/m² | - |
| 1777641227 | 10.56° C | 62% | 1014.1 hPa | 0 mm | - | 53 W/m² | - |
| 1777640924 | 10° C | 61% | 1014.2 hPa | 0 mm | - | 71 W/m² | - |
| 1777639102 | 9.44° C | 67% | 1014.5 hPa | 0 mm | - | 76 W/m² | - |
| 1777638801 | 9.44° C | 67% | 1014.3 hPa | 0 mm | - | 167 W/m² | - |
| 1777638501 | 8.89° C | 70% | 1014.3 hPa | 0 mm | - | 215 W/m² | - |
| 1777638198 | 8.89° C | 68% | 1014.2 hPa | 0 mm | - | 189 W/m² | - |
| 1777637894 | 8.89° C | 71% | 1014.1 hPa | 0 mm | - | 204 W/m² | - |
| 1777637590 | 8.33° C | 72% | 1014.2 hPa | 0 mm | - | 40 W/m² | - |
| 1777637288 | 8.33° C | 74% | 1014.2 hPa | 0 mm | - | 121 W/m² | - |
| 1777636984 | 8.33° C | 75% | 1014.4 hPa | 0 mm | - | 97 W/m² | - |
| 1777636680 | 7.78° C | 76% | 1014.3 hPa | 0 mm | - | 101 W/m² | - |
| 1777636376 | 7.78° C | 77% | 1014.4 hPa | 0 mm | - | 65 W/m² | - |
| 1777636076 | 7.78° C | 77% | 1014.4 hPa | 0 mm | - | 55 W/m² | - |
| 1777635469 | 7.22° C | 78% | 1014.1 hPa | 0 mm | - | 65 W/m² | - |
| 1777635166 | 7.22° C | 79% | 1014.1 hPa | 0 mm | - | 44 W/m² | - |
| 1777634862 | 6.67° C | 79% | 1013.8 hPa | 0 mm | - | 46 W/m² | - |
| 1777634560 | 6.67° C | 80% | 1014.2 hPa | 0 mm | - | 38 W/m² | - |
| 1777634256 | 6.67° C | 80% | 1014.2 hPa | 0 mm | - | 32 W/m² | - |
| 1777633952 | 6.11° C | 81% | 1014.1 hPa | 0 mm | - | 32 W/m² | - |
| 1777633650 | 6.11° C | 81% | 1014.3 hPa | 0 mm | - | 31 W/m² | - |
| 1777633348 | 6.11° C | 82% | 1014.2 hPa | 0 mm | - | 27 W/m² | - |
| 1777633046 | 5.56° C | 82% | 1014 hPa | 0 mm | - | 30 W/m² | - |
* Rain latest hour (hover to see other rain measurements)
** Current wind speed in m/s (hover to see current wind gust speed)